Okmulgee, OK

7:13 AM CDT on September 22, 2017 (GMT -0500)
Okmulgee Regional

Weather History for KOKM - November, 2012

Change the Weather History Date:

Thursday, November 22, 2012

  Actual Average (KMKO) Record (KMKO)
Temperature  
Mean Temperature 68 °F -  
Max Temperature 77 °F 57 °F 77 °F (2010)
Min Temperature 59 °F 36 °F 23 °F (2015)
Cooling Degree Days 3    
Growing Degree Days 18 (Base 50)    
Moisture  
Dew Point 46 °F    
Average Humidity 51    
Maximum Humidity 73    
Minimum Humidity 34    
Precipitation  
Precipitation 0.00 in - - ()
Sea Level Pressure  
Sea Level Pressure 30.03 in    
Wind  
Wind Speed 10 mph (SSW)    
Max Wind Speed 22 mph    
Max Gust Speed 34 mph    
Visibility 10 miles    
Events Rain    
Averages and records for this station are not official NWS values.
T = Trace of Precipitation, MM = Missing Value Source: NWS Daily Summary

Daily Weather History Graph

Daily Weather History Graph

Search for Another Location

Airport or City:

Trip Planner

Search our weather history database for the weather conditions in past years. The results will help you decide how hot, cold, wet, or windy it might be!

Date:

Astronomy

Nov. 22, 2012 Rise Set
Actual Time 7:07 AM CST 5:12 PM CST
Civil Twilight 6:39 AM CST 5:40 PM CST
Nautical Twilight 6:08 AM CST 6:11 PM CST
Astronomical Twilight 5:37 AM CST 6:42 PM CST
Moon 1:49 PM CST 1:38 AM CST
Length of Visible Light 11h 00m
Length of Day
10h 05m
Waxing Gibbous, 71% of the Moon is Illuminated
Nov 22
Waxing Gibbous
Nov 28
Full
Dec 6
Last Quarter
Dec 13
New
Dec 19
First Quarter

Hourly Weather History & Observations

Time (CST) Temp. Dew Point Humidity Pressure Visibility Wind Dir Wind Speed Gust Speed Precip Events Conditions
12:15 AM 62.6 °F 42.8 °F 48% 30.06 in 10.0 mi South 8.1 mph - N/A   Clear
12:35 AM 60.8 °F 42.8 °F 52% 30.06 in 10.0 mi South 6.9 mph - N/A   Clear
12:55 AM 60.8 °F 42.8 °F 52% 30.05 in 10.0 mi South 6.9 mph - N/A   Clear
1:15 AM 60.8 °F 42.8 °F 52% 30.05 in 10.0 mi South 6.9 mph - N/A   Clear
1:35 AM 60.8 °F 42.8 °F 52% 30.05 in 10.0 mi South 5.8 mph - N/A   Clear
1:55 AM 60.8 °F 42.8 °F 52% 30.05 in 10.0 mi South 6.9 mph - N/A   Clear
2:15 AM 59.0 °F 42.8 °F 55% 30.04 in 10.0 mi South 6.9 mph - N/A   Clear
2:35 AM 59.0 °F 44.6 °F 59% 30.04 in 10.0 mi South 6.9 mph - N/A   Clear
2:55 AM 59.0 °F 44.6 °F 59% 30.04 in 10.0 mi South 5.8 mph - N/A   Clear
3:15 AM 59.0 °F 44.6 °F 59% 30.04 in 10.0 mi South 6.9 mph - N/A   Clear
3:35 AM 59.0 °F 44.6 °F 59% 30.04 in 10.0 mi South 8.1 mph - N/A   Clear
3:55 AM 59.0 °F 44.6 °F 59% 30.03 in 10.0 mi South 9.2 mph - N/A   Clear
4:15 AM 60.8 °F 44.6 °F 55% 30.03 in 10.0 mi South 6.9 mph - N/A   Clear
4:35 AM 60.8 °F 44.6 °F 55% 30.03 in 10.0 mi South 9.2 mph - N/A   Clear
4:55 AM 60.8 °F 44.6 °F 55% 30.03 in 10.0 mi South 10.4 mph - N/A   Clear
5:15 AM 59.0 °F 44.6 °F 59% 30.03 in 10.0 mi South 8.1 mph - N/A   Clear
5:35 AM 60.8 °F 44.6 °F 55% 30.03 in 10.0 mi South 9.2 mph - N/A   Clear
5:55 AM 60.8 °F 44.6 °F 55% 30.03 in 10.0 mi South 13.8 mph - N/A   Clear
6:15 AM 60.8 °F 44.6 °F 55% 30.03 in 10.0 mi South 13.8 mph - N/A   Clear
6:35 AM 60.8 °F 44.6 °F 55% 30.03 in 10.0 mi South 12.7 mph 19.6 mph N/A   Clear
6:55 AM 60.8 °F 44.6 °F 55% 30.03 in 10.0 mi South 11.5 mph - N/A   Clear
7:15 AM 60.8 °F 44.6 °F 55% 30.03 in 10.0 mi South 13.8 mph 18.4 mph N/A   Clear
7:35 AM 60.8 °F 44.6 °F 55% 30.03 in 10.0 mi South 13.8 mph - N/A   Clear
7:55 AM 60.8 °F 44.6 °F 55% 30.03 in 10.0 mi South 11.5 mph - N/A   Clear
8:15 AM 60.8 °F 44.6 °F 55% 30.03 in 10.0 mi South 12.7 mph - N/A   Clear
8:35 AM 60.8 °F 46.4 °F 59% 30.04 in 10.0 mi South 9.2 mph - N/A   Clear
8:55 AM 62.6 °F 46.4 °F 55% 30.04 in 10.0 mi South 12.7 mph 17.3 mph N/A   Clear
9:15 AM 64.4 °F 46.4 °F 52% 30.04 in 10.0 mi South 13.8 mph 20.7 mph N/A   Clear
9:35 AM 66.2 °F 46.4 °F 49% 30.03 in 10.0 mi SSW 13.8 mph 19.6 mph N/A   Clear
9:55 AM 68.0 °F 46.4 °F 46% 30.03 in 10.0 mi SSW 15.0 mph 19.6 mph N/A   Clear
10:15 AM 68.0 °F 48.2 °F 49% 30.03 in 10.0 mi South 16.1 mph 20.7 mph N/A   Clear
10:35 AM 69.8 °F 48.2 °F 46% 30.03 in 10.0 mi South 16.1 mph 20.7 mph N/A   Clear
10:55 AM 69.8 °F 50.0 °F 49% 30.02 in 10.0 mi SSW 19.6 mph 27.6 mph N/A   Clear
11:15 AM 69.8 °F 50.0 °F 49% 30.01 in 10.0 mi South 16.1 mph 21.9 mph N/A   Clear
11:35 AM 73.4 °F 50.0 °F 44% 29.99 in 10.0 mi SSW 20.7 mph 34.5 mph N/A   Clear
11:55 AM 73.4 °F 50.0 °F 44% 29.98 in 10.0 mi South 18.4 mph 25.3 mph N/A   Clear
12:15 PM 73.4 °F 50.0 °F 44% 29.96 in 10.0 mi South 19.6 mph 26.5 mph N/A   Clear
12:35 PM 73.4 °F 50.0 °F 44% 29.96 in 10.0 mi South 16.1 mph 24.2 mph N/A   Clear
12:55 PM 75.2 °F 50.0 °F 41% 29.96 in 10.0 mi South 17.3 mph 23.0 mph N/A   Clear
1:15 PM 77.0 °F 50.0 °F 39% 29.96 in 10.0 mi SSW 19.6 mph 27.6 mph N/A   Clear
1:35 PM 77.0 °F 48.2 °F 36% 29.95 in 10.0 mi SSW 18.4 mph 24.2 mph N/A   Clear
1:55 PM 77.0 °F 46.4 °F 34% 29.94 in 10.0 mi SSW 16.1 mph 25.3 mph N/A   Clear
2:15 PM 77.0 °F 46.4 °F 34% 29.94 in 10.0 mi SSW 21.9 mph 31.1 mph N/A   Clear
2:35 PM 77.0 °F 46.4 °F 34% 29.94 in 10.0 mi South 21.9 mph 28.8 mph N/A   Clear
2:55 PM 77.0 °F 46.4 °F 34% 29.93 in 10.0 mi SSW 18.4 mph 26.5 mph N/A   Clear
3:15 PM 75.2 °F 46.4 °F 36% 29.93 in 10.0 mi SSW 13.8 mph 24.2 mph N/A   Clear
3:35 PM 73.4 °F 46.4 °F 38% 29.93 in 10.0 mi SSW 15.0 mph 23.0 mph N/A   Clear
3:55 PM 73.4 °F 46.4 °F 38% 29.95 in 10.0 mi South 16.1 mph 23.0 mph N/A   Clear
4:15 PM 73.4 °F 48.2 °F 41% 29.95 in 10.0 mi SSW 16.1 mph 24.2 mph N/A   Clear
4:35 PM 71.6 °F 46.4 °F 41% 29.96 in 10.0 mi SSW 18.4 mph 24.2 mph N/A   Clear
4:55 PM 71.6 °F 46.4 °F 41% 29.96 in 10.0 mi SSW 17.3 mph 23.0 mph N/A   Clear
5:15 PM 71.6 °F 46.4 °F 41% 29.96 in 10.0 mi SSW 13.8 mph 24.2 mph N/A   Clear
5:35 PM 69.8 °F 46.4 °F 43% 29.98 in 10.0 mi SW 9.2 mph 16.1 mph N/A   Clear
5:55 PM 69.8 °F 46.4 °F 43% 30.00 in 10.0 mi WSW 4.6 mph - N/A   Clear
6:15 PM 68.0 °F 46.4 °F 46% 30.01 in 10.0 mi Calm Calm - N/A   Clear
6:35 PM 64.4 °F 46.4 °F 52% 30.03 in 10.0 mi West 3.5 mph - N/A   Clear
6:55 PM 66.2 °F 46.4 °F 49% 30.04 in 10.0 mi SW 3.5 mph - N/A   Clear
7:15 PM 62.6 °F 46.4 °F 55% 30.05 in 10.0 mi South 3.5 mph - N/A   Scattered Clouds
7:35 PM 60.8 °F 46.4 °F 59% 30.06 in 10.0 mi South 4.6 mph - N/A   Scattered Clouds
7:55 PM 62.6 °F 46.4 °F 55% 30.06 in 10.0 mi SSE 4.6 mph - N/A   Scattered Clouds
8:15 PM 60.8 °F 46.4 °F 59% 30.06 in 10.0 mi SSE 4.6 mph - N/A   Scattered Clouds
8:35 PM 60.8 °F 46.4 °F 59% 30.07 in 10.0 mi Calm Calm - N/A   Clear
8:55 PM 62.6 °F 46.4 °F 55% 30.08 in 10.0 mi Calm Calm - N/A   Clear
9:15 PM 60.8 °F 46.4 °F 59% 30.08 in 10.0 mi Calm Calm - N/A   Clear
9:35 PM 60.8 °F 46.4 °F 59% 30.08 in 10.0 mi Calm Calm - N/A   Clear
9:55 PM 59.0 °F 46.4 °F 63% 30.09 in 10.0 mi Calm Calm - N/A   Scattered Clouds
10:15 PM 62.6 °F 48.2 °F 59% 30.13 in 10.0 mi NW 12.7 mph 19.6 mph N/A   Mostly Cloudy
10:35 PM 64.4 °F 55.4 °F 73% 30.14 in 10.0 mi North 16.1 mph 23.0 mph N/A Rain Rain
10:55 PM 60.8 °F 51.8 °F 72% 30.16 in 10.0 mi North 15.0 mph 25.3 mph N/A   Overcast
11:15 PM 60.8 °F 48.2 °F 63% 30.17 in 10.0 mi North 13.8 mph - N/A Rain Light Rain
11:35 PM 60.8 °F 46.4 °F 59% 30.18 in 10.0 mi North 17.3 mph 25.3 mph N/A   Overcast
11:55 PM 60.8 °F 44.6 °F 55% 30.19 in 10.0 mi North 15.0 mph - N/A   Overcast